Content
SEND FEEDBACK

Daily
Averages
Monthly
Summary
United States of America

ST. LOUIS - SAINT LOUIS UNIVERSITY, MISSOURI


Home > North America > United States > Missouri
Elevation: 580 feet     Latitude: 38 38N     Longitude: 090 14W

WEATHER
 
SELECT A DAY
Number of Records: 190,056;   Date Range: 1/1/95 - 11/26/14
 
SHARE

PRINT THIS DATA

[ ← Previous Day ]
WEATHER ALMANAC - MARCH 26, 2013
[ Next Day → ]
[ °C ]   °F
Weather ElementAverageHighLow
Temperature34.8 °F41 °F (2:53 pm)28.9 °F (11:53 pm)
Dewpoint23.5 °F25 °F (4:53 am)21 °F (9:53 pm)
Humidity64.2 %82 % (11:53 pm)50 % (1:53 pm)
Barometer30.31 in30.38 in (11:53 pm)30.22 in (1:53 am)
Wind Speed10.1 mph15 mph (1:53 pm)
Weather ElementAverage
Visibility10 mi
Wind DirectionWNW (280 °)

Weather ElementTotal
Precipitation---
Heating Degree Days30.1 (Base 65)
Averaged from 23 records on March 26, 2013
WEATHER CONDITIONS BREAKOUT
WIND DIRECTION BREAKOUT
WEATHER BY HOUR - MARCH 26, 2013
[ °C ]   °F
Local TimeTemperatureDewpointHumidityBarometerVisibilityWind DirectionWind SpeedGust SpeedPrecipitationEventsConditions
1:53 AM30.9 °F23.0 °F72 %30.22 in10.0 miWest (280°)8.1 mphClear
2:53 AM32.0 °F24.1 °F73 %30.22 in10.0 miWNW (290°)9.2 mphOvercast
3:53 AM32.0 °F24.1 °F73 %30.22 in10.0 miWNW (300°)10.4 mphOvercast
4:53 AM32.0 °F25.0 °F75 %30.22 in10.0 miWNW (300°)12.7 mphOvercast
5:53 AM32.0 °F25.0 °F75 %30.24 in10.0 miNW (310°)11.5 mphOvercast
6:53 AM32.0 °F24.1 °F73 %30.26 in10.0 miWNW (300°)11.5 mphOvercast
7:53 AM33.1 °F24.1 °F70 %30.29 in10.0 miNW (310°)9.2 mphOvercast
8:53 AM33.1 °F24.1 °F70 %30.31 in10.0 miNW (310°)12.7 mphOvercast
9:53 AM34.0 °F25.0 °F70 %30.32 in10.0 miWNW (300°)8.1 mphOvercast
10:53 AM36.0 °F24.1 °F62 %30.34 in10.0 miNW (310°)13.8 mphMostly Cloudy
11:53 AM37.0 °F23.0 °F57 %30.35 in10.0 miWNW (300°)13.8 mphMostly Cloudy
12:53 PM37.9 °F21.9 °F53 %30.35 in10.0 miNW (310°)13.8 mphOvercast
1:53 PM39.0 °F21.9 °F50 %30.34 in10.0 miNW (320°)15.0 mphScattered Clouds
2:53 PM41.0 °F24.1 °F51 %30.33 in10.0 miNW (310°)13.8 mphScattered Clouds
3:53 PM39.9 °F24.1 °F53 %30.33 in10.0 miNW (320°)13.8 mphMostly Cloudy
4:53 PM39.9 °F24.1 °F53 %30.33 in10.0 miNW (310°)13.8 mphMostly Cloudy
5:53 PM39.0 °F24.1 °F55 %30.34 in10.0 miNW (320°)11.5 mphClear
6:53 PM37.9 °F23.0 °F55 %30.35 in10.0 miNNW (330°)11.5 mphClear
7:53 PM36.0 °F21.9 °F57 %30.35 in10.0 miNW (320°)9.2 mphClear
8:53 PM33.1 °F21.9 °F64 %30.36 in10.0 miNW (310°)4.6 mphClear
9:53 PM34.0 °F21.0 °F59 %30.37 in10.0 miWest (280°)3.5 mphClear
10:53 PM30.0 °F23.0 °F75 %30.37 in10.0 miCalmClear
11:53 PM28.9 °F24.1 °F82 %30.38 in10.0 miCalmClear
Hourly data recorded from KCPS, located miles away from St. Louis - Saint Louis University, Missouri







STORIES FROM OUR PARTNERS